Radiation Dose at Monitoring Post of Fukushima Daini Nuclear Power Station
Date,Time,MP-1(microSv/h),MP-2(microSv/h),MP-3(microSv/h),MP-4(microSv/h),MP-5(microSv/h),MP-6(microSv/h),MP-7(microSv/h),Wind Direction,Wind Velocity(m/s),Rain
2015/11/18,00:00,0.484,0.277,0.493,0.456,0.440,0.224,0.194,-,-,No
2015/11/18,00:10,0.486,0.276,0.488,0.457,0.443,0.223,0.193,-,-,No
2015/11/18,00:20,0.482,0.275,0.493,0.454,0.439,0.222,0.192,-,-,No
2015/11/18,00:30,0.482,0.273,0.489,0.456,0.441,0.222,0.191,-,-,No
2015/11/18,00:40,0.483,0.273,0.492,0.455,0.440,0.222,0.192,-,-,No
2015/11/18,00:50,0.484,0.274,0.489,0.455,0.442,0.222,0.192,-,-,No
2015/11/18,01:00,0.481,0.272,0.493,0.454,0.440,0.222,0.192,-,-,No
2015/11/18,01:10,0.486,0.274,0.488,0.456,0.442,0.221,0.191,-,-,No
2015/11/18,01:20,0.482,0.273,0.492,0.455,0.440,0.222,0.191,-,-,No
2015/11/18,01:30,0.483,0.274,0.487,0.455,0.439,0.222,0.192,-,-,No
2015/11/18,01:40,0.481,0.272,0.491,0.454,0.442,0.222,0.193,-,-,No
2015/11/18,01:50,0.484,0.274,0.488,0.452,0.439,0.222,0.191,-,-,No
2015/11/18,02:00,0.482,0.272,0.490,0.456,0.441,0.221,0.190,-,-,No
2015/11/18,02:10,0.485,0.274,0.486,0.454,0.437,0.221,0.190,-,-,No
2015/11/18,02:20,0.483,0.272,0.492,0.456,0.444,0.222,0.190,-,-,No
2015/11/18,02:30,0.482,0.274,0.486,0.453,0.438,0.221,0.191,-,-,No
2015/11/18,02:40,0.482,0.271,0.491,0.457,0.442,0.220,0.191,-,-,No
2015/11/18,02:50,0.481,0.273,0.488,0.453,0.438,0.221,0.191,-,-,No
2015/11/18,03:00,0.483,0.274,0.492,0.458,0.443,0.221,0.191,-,-,No
2015/11/18,03:10,0.485,0.274,0.488,0.453,0.438,0.222,0.192,-,-,No
2015/11/18,03:20,0.482,0.274,0.492,0.457,0.443,0.221,0.191,-,-,No
2015/11/18,03:30,0.483,0.273,0.488,0.452,0.437,0.222,0.191,-,-,No
2015/11/18,03:40,0.482,0.274,0.492,0.458,0.445,0.221,0.191,-,-,No
2015/11/18,03:50,0.483,0.274,0.487,0.453,0.439,0.222,0.191,-,-,No
2015/11/18,04:00,0.482,0.273,0.494,0.458,0.444,0.222,0.191,-,-,No
2015/11/18,04:10,0.484,0.273,0.489,0.453,0.438,0.221,0.191,-,-,No
2015/11/18,04:20,0.485,0.274,0.494,0.457,0.445,0.222,0.191,-,-,No
2015/11/18,04:30,0.484,0.272,0.489,0.453,0.440,0.221,0.192,-,-,No
2015/11/18,04:40,0.484,0.275,0.493,0.458,0.445,0.221,0.191,-,-,No
2015/11/18,04:50,0.485,0.273,0.489,0.455,0.438,0.222,0.192,-,-,No
2015/11/18,05:00,0.484,0.274,0.492,0.457,0.442,0.222,0.191,-,-,No
2015/11/18,05:10,0.484,0.273,0.487,0.455,0.440,0.222,0.191,-,-,No
2015/11/18,05:20,0.485,0.275,0.492,0.455,0.442,0.221,0.191,-,-,No
2015/11/18,05:30,0.484,0.272,0.490,0.454,0.441,0.222,0.191,-,-,No
2015/11/18,05:40,0.485,0.272,0.491,0.457,0.442,0.222,0.190,-,-,No
2015/11/18,05:50,0.481,0.274,0.489,0.454,0.440,0.221,0.191,-,-,No
2015/11/18,06:00,0.485,0.276,0.491,0.456,0.440,0.223,0.192,-,-,No
2015/11/18,06:10,0.484,0.275,0.489,0.454,0.441,0.222,0.192,-,-,No
2015/11/18,06:20,0.484,0.273,0.493,0.457,0.440,0.222,0.190,-,-,No
2015/11/18,06:30,0.485,0.274,0.488,0.454,0.439,0.221,0.192,-,-,No
2015/11/18,06:40,0.485,0.273,0.493,0.457,0.440,0.223,0.191,-,-,No
2015/11/18,06:50,0.484,0.274,0.491,0.455,0.442,0.221,0.191,-,-,No
2015/11/18,07:00,0.485,0.273,0.491,0.457,0.441,0.222,0.191,-,-,No
2015/11/18,07:10,0.485,0.274,0.489,0.454,0.440,0.220,0.192,-,-,Yes
2015/11/18,07:20,0.486,0.274,0.494,0.456,0.440,0.222,0.191,-,-,Yes
2015/11/18,07:30,0.488,0.275,0.492,0.455,0.440,0.223,0.192,-,-,Yes
2015/11/18,07:40,0.485,0.275,0.496,0.458,0.441,0.224,0.192,-,-,No
2015/11/18,07:50,0.487,0.275,0.492,0.455,0.443,0.222,0.192,-,-,No
2015/11/18,08:00,0.486,0.276,0.494,0.458,0.440,0.223,0.192,-,-,No
2015/11/18,08:10,0.489,0.275,0.489,0.454,0.441,0.222,0.191,-,-,No
2015/11/18,08:20,0.485,0.275,0.494,0.459,0.440,0.222,0.192,-,-,No
2015/11/18,08:30,0.489,0.275,0.489,0.453,0.441,0.222,0.191,-,-,No
2015/11/18,08:40,0.484,0.274,0.494,0.457,0.442,0.222,0.192,-,-,No
2015/11/18,08:50,0.488,0.275,0.488,0.453,0.442,0.222,0.191,-,-,No
2015/11/18,09:00,0.484,0.273,0.495,0.458,0.440,0.221,0.190,-,-,No
2015/11/18,09:10,0.488,0.274,0.489,0.453,0.441,0.222,0.191,-,-,No
2015/11/18,09:20,0.484,0.273,0.492,0.457,0.442,0.222,0.192,-,-,No
2015/11/18,09:30,0.488,0.274,0.489,0.455,0.440,0.222,0.190,-,-,No
2015/11/18,09:40,0.484,0.273,0.492,0.457,0.442,0.220,0.191,-,-,No
2015/11/18,09:50,0.488,0.274,0.489,0.452,0.439,0.221,0.191,-,-,No
2015/11/18,10:00,0.482,0.274,0.492,0.459,0.442,0.221,0.192,-,-,No
2015/11/18,10:10,0.490,0.274,0.491,0.455,0.440,0.222,0.191,-,-,No
2015/11/18,10:20,0.483,0.274,0.490,0.460,0.443,0.221,0.192,-,-,No
2015/11/18,10:30,0.487,0.275,0.490,0.453,0.441,0.222,0.192,-,-,No
2015/11/18,10:40,0.484,0.273,0.492,0.459,0.443,0.222,0.192,-,-,No
2015/11/18,10:50,0.488,0.273,0.493,0.455,0.441,0.221,0.191,-,-,No
2015/11/18,11:00,0.483,0.274,0.491,0.457,0.442,0.221,0.192,-,-,No
2015/11/18,11:10,0.487,0.274,0.491,0.454,0.439,0.222,0.191,-,-,No
2015/11/18,11:20,0.484,0.274,0.492,0.457,0.441,0.222,0.191,-,-,No
2015/11/18,11:30,0.487,0.275,0.492,0.456,0.439,0.223,0.192,-,-,No
2015/11/18,11:40,0.487,0.274,0.491,0.457,0.443,0.222,0.191,-,-,Yes
2015/11/18,11:50,0.488,0.275,0.493,0.455,0.440,0.223,0.193,-,-,Yes
2015/11/18,12:00,0.487,0.274,0.493,0.458,0.445,0.224,0.192,-,-,No
2015/11/18,12:10,0.489,0.278,0.495,0.457,0.443,0.225,0.193,-,-,Yes
2015/11/18,12:20,0.489,0.276,0.494,0.462,0.441,0.225,0.193,-,-,Yes
2015/11/18,12:30,0.492,0.279,0.495,0.458,0.446,0.225,0.195,-,-,Yes
2015/11/18,12:40,0.485,0.277,0.495,0.461,0.439,0.226,0.195,-,-,Yes
2015/11/18,12:50,0.490,0.279,0.491,0.456,0.445,0.227,0.195,-,-,Yes
2015/11/18,13:00,0.486,0.279,0.495,0.459,0.442,0.229,0.197,-,-,Yes
2015/11/18,13:10,0.490,0.282,0.491,0.457,0.448,0.232,0.199,-,-,Yes
2015/11/18,13:20,0.490,0.285,0.495,0.460,0.446,0.234,0.202,-,-,Yes
2015/11/18,13:30,0.493,0.285,0.491,0.457,0.450,0.236,0.205,-,-,Yes
2015/11/18,13:40,0.493,0.286,0.498,0.461,0.450,0.239,0.206,-,-,Yes
2015/11/18,13:50,0.492,0.288,0.490,0.458,0.449,0.239,0.208,-,-,Yes
2015/11/18,14:00,0.495,0.291,0.495,0.458,0.452,0.242,0.210,-,-,Yes
2015/11/18,14:10,0.500,0.296,0.494,0.460,0.453,0.246,0.216,-,-,Yes
2015/11/18,14:20,0.506,0.305,0.504,0.467,0.462,0.253,0.224,-,-,Yes
2015/11/18,14:30,0.502,0.306,0.508,0.472,0.462,0.253,0.224,-,-,Yes
2015/11/18,14:40,0.504,0.303,0.510,0.471,0.464,0.254,0.222,-,-,Yes
2015/11/18,14:50,0.496,0.300,0.506,0.469,0.458,0.250,0.217,-,-,Yes
2015/11/18,15:00,0.495,0.293,0.502,0.466,0.462,0.244,0.213,-,-,No
2015/11/18,15:10,0.490,0.290,0.501,0.464,0.453,0.239,0.208,-,-,No
2015/11/18,15:20,0.491,0.287,0.496,0.460,0.452,0.236,0.206,-,-,No
2015/11/18,15:30,0.486,0.285,0.499,0.462,0.449,0.234,0.204,-,-,Yes
2015/11/18,15:40,0.489,0.285,0.493,0.458,0.449,0.234,0.202,-,-,Yes
2015/11/18,15:50,0.484,0.284,0.496,0.461,0.450,0.231,0.201,-,-,Yes
2015/11/18,16:00,0.487,0.285,0.493,0.457,0.446,0.230,0.199,-,-,Yes
2015/11/18,16:10,0.486,0.285,0.496,0.461,0.451,0.232,0.201,-,-,Yes
2015/11/18,16:20,0.486,0.286,0.491,0.459,0.447,0.230,0.200,-,-,Yes
2015/11/18,16:30,0.486,0.282,0.499,0.460,0.451,0.231,0.200,-,-,Yes
2015/11/18,16:40,0.485,0.288,0.493,0.461,0.450,0.234,0.205,-,-,Yes
2015/11/18,16:50,0.488,0.289,0.500,0.462,0.456,0.235,0.205,east-northeast,8.1,Yes
2015/11/18,17:00,0.487,0.294,0.500,0.466,0.454,0.237,0.207,east-northeast,7.3,Yes
2015/11/18,17:10,0.492,0.296,0.504,0.465,0.458,0.241,0.210,east-northeast,8.1,Yes
2015/11/18,17:20,0.489,0.295,0.502,0.468,0.458,0.243,0.209,east-northeast,7.3,Yes
2015/11/18,17:30,0.493,0.296,0.503,0.464,0.458,0.242,0.210,east,8.2,Yes
2015/11/18,17:40,0.489,0.295,0.501,0.469,0.460,0.243,0.211,east,8.1,Yes
2015/11/18,17:50,0.492,0.296,0.503,0.464,0.457,0.244,0.210,east-northeast,8.2,Yes
2015/11/18,18:00,0.488,0.295,0.503,0.468,0.462,0.243,0.211,east-northeast,8.2,Yes
2015/11/18,18:10,0.489,0.296,0.501,0.464,0.456,0.242,0.211,east-northeast,8.7,Yes
2015/11/18,18:20,0.488,0.295,0.503,0.464,0.458,0.241,0.209,east-northeast,6.9,Yes
2015/11/18,18:30,0.488,0.292,0.500,0.466,0.455,0.239,0.207,east-northeast,8.1,Yes
2015/11/18,18:40,0.485,0.292,0.502,0.463,0.455,0.240,0.207,east-northeast,7.3,Yes
2015/11/18,18:50,0.482,0.288,0.497,0.464,0.455,0.238,0.206,east-northeast,7.3,Yes
2015/11/18,19:00,0.486,0.289,0.500,0.458,0.451,0.236,0.204,east-northeast,5.8,Yes
2015/11/18,19:10,0.480,0.286,0.494,0.461,0.454,0.236,0.204,east-northeast,6.7,Yes
2015/11/18,19:20,0.484,0.288,0.496,0.457,0.451,0.235,0.204,east-northeast,8.3,Yes
2015/11/18,19:30,0.479,0.286,0.494,0.459,0.453,0.234,0.202,east-northeast,6.4,Yes
2015/11/18,19:40,0.482,0.285,0.491,0.458,0.448,0.234,0.202,east-northeast,9.0,Yes
2015/11/18,19:50,0.478,0.285,0.493,0.459,0.449,0.232,0.202,east-northeast,8.1,Yes
2015/11/18,20:00,0.478,0.284,0.490,0.457,0.448,0.232,0.202,northeast,10.7,Yes
2015/11/18,20:10,0.481,0.287,0.492,0.455,0.449,0.232,0.201,northeast,8.5,Yes
2015/11/18,20:20,0.477,0.284,0.489,0.458,0.452,0.232,0.201,northeast,10.7,Yes
2015/11/18,20:30,0.482,0.285,0.492,0.453,0.448,0.233,0.200,-,CALM,Yes
2015/11/18,20:40,0.477,0.285,0.489,0.456,0.450,0.232,0.201,northeast,6.5,Yes
2015/11/18,20:50,0.481,0.286,0.491,0.453,0.448,0.231,0.202,northeast,7.8,Yes
2015/11/18,21:00,0.479,0.286,0.490,0.457,0.451,0.234,0.201,-,CALM,Yes
2015/11/18,21:10,0.480,0.286,0.490,0.454,0.449,0.234,0.203,northeast,9.5,Yes
2015/11/18,21:20,0.479,0.288,0.492,0.456,0.448,0.236,0.204,north-northeast,8.3,Yes
2015/11/18,21:30,0.479,0.287,0.490,0.457,0.452,0.235,0.204,northeast,7.6,Yes
2015/11/18,21:40,0.481,0.288,0.493,0.453,0.449,0.236,0.206,north-northeast,9.6,Yes
2015/11/18,21:50,0.480,0.288,0.492,0.459,0.453,0.236,0.205,north-northeast,9.0,Yes
2015/11/18,22:00,0.484,0.288,0.497,0.456,0.451,0.235,0.205,northeast,9.2,Yes
2015/11/18,22:10,0.480,0.291,0.492,0.461,0.452,0.236,0.204,north,12.1,Yes
2015/11/18,22:20,0.485,0.290,0.495,0.457,0.454,0.236,0.205,north,10.3,Yes
2015/11/18,22:30,0.483,0.291,0.493,0.461,0.453,0.238,0.206,north,14.4,Yes
2015/11/18,22:40,0.483,0.291,0.493,0.460,0.456,0.238,0.207,north-northeast,11.5,Yes
2015/11/18,22:50,0.486,0.292,0.495,0.459,0.454,0.240,0.209,north-northeast,12.2,Yes
2015/11/18,23:00,0.484,0.293,0.492,0.461,0.454,0.240,0.210,north-northeast,14.2,Yes
2015/11/18,23:10,0.487,0.292,0.495,0.458,0.454,0.241,0.208,north-northeast,12.3,Yes
2015/11/18,23:20,0.483,0.291,0.491,0.461,0.453,0.238,0.208,north-northeast,13.3,Yes
2015/11/18,23:30,0.485,0.289,0.494,0.460,0.453,0.237,0.206,north,11.7,Yes
2015/11/18,23:40,0.483,0.288,0.492,0.460,0.453,0.237,0.205,north,11.7,Yes
2015/11/18,23:50,0.483,0.290,0.490,0.461,0.453,0.235,0.204,north-northeast,11.7,Yes
